History for Miami, FL

Monday, November 26, 2012 — View Current Conditions

Jump to Data:

Date:
Airport Code:
Recently Viewed Airport Codes: KMIA
Daily Summary
  Actual Average Record
Temperature
Mean Temperature 70°F 73°F  
Max Temperature 80°F 80°F 86°F (1979)
Min Temperature 59°F 67°F 39°F (1950)
Degree Days
Heating Degree Days 0 0  
Month to date heating degree days 1 0  
Since 1 July heating degree days 1 0  
Cooling Degree Days 5 9  
Month to date cooling degree days 167 268  
Year to date cooling degree days 4406 4340  
Growing Degree Days 20 (Base 50)    
Moisture
Dew Point 58°F    
Average Humidity 70    
Maximum Humidity 87    
Minimum Humidity 52    
Precipitation
Precipitation 0.00 in 0.09 in 1.98 in (1958)
Month to date precipitation 0.24 2.92  
Year to date precipitation 86.17 59.51  
Snow
Snow 0.00 in in in ()
Month to date snowfall 0.0  
Since 1 July snowfall 0.0  
Since 1 September snowfall 0.0  
Snow Depth 0.00 in    
Sea Level Pressure
Sea Level Pressure 30.16 in    
Wind
Wind Speed 5 mph (ESE)    
Max Wind Speed 13 mph    
Max Gust Speed 22 mph    
Visibility 10 miles    
Events      
T = Trace of Precipitation, MM = Missing Value Source: NWS Daily Summary

Show full METARS

(help) - Comma Delimited File

Hourly Observations

Time(EST) Temperature Dew Point Humidity Sea Level Pressure Visibility Wind Direction Wind Speed Gust Speed Precipitation Events Conditions
12:53 AM 62.1°F 55.0°F 78% 30.14 in 10.0 miles Calm Calm - N/A   Clear
1:53 AM 61.0°F 55.9°F 83% 30.13 in 10.0 miles Calm Calm - N/A   Clear
2:53 AM 59.0°F 55.9°F 90% 30.12 in 9.0 miles Calm Calm - N/A   Partly Cloudy
3:53 AM 62.1°F 55.9°F 80% 30.12 in 10.0 miles Calm Calm - N/A   Mostly Cloudy
4:53 AM 60.1°F 55.0°F 83% 30.13 in 10.0 miles Calm Calm - N/A   Clear
5:53 AM 61.0°F 54.0°F 78% 30.14 in 10.0 miles Calm Calm - N/A   Partly Cloudy
6:53 AM 63.0°F 55.0°F 75% 30.16 in 10.0 miles Calm Calm - N/A   Scattered Clouds
7:53 AM 64.9°F 55.9°F 73% 30.17 in 10.0 miles Calm Calm - N/A   Scattered Clouds
8:53 AM 69.1°F 57.0°F 65% 30.19 in 10.0 miles Calm Calm - N/A   Mostly Cloudy
9:53 AM 75.9°F 59.0°F 56% 30.20 in 10.0 miles ENE 5.8 mph - N/A   Scattered Clouds
10:53 AM 78.1°F 59.0°F 52% 30.20 in 10.0 miles ESE 10.4 mph - N/A   Scattered Clouds
11:53 AM 78.1°F 60.1°F 54% 30.19 in 10.0 miles East 6.9 mph - N/A   Mostly Cloudy
12:53 PM 78.1°F 59.0°F 52% 30.16 in 10.0 miles ESE 8.1 mph - N/A   Scattered Clouds
1:53 PM 79.0°F 60.1°F 52% 30.14 in 10.0 miles ESE 9.2 mph - N/A   Scattered Clouds
2:53 PM 78.1°F 59.0°F 52% 30.14 in 10.0 miles SE 10.4 mph - N/A   Scattered Clouds
3:53 PM 77.0°F 59.0°F 54% 30.14 in 10.0 miles ESE 9.2 mph - N/A   Scattered Clouds
4:53 PM 75.0°F 59.0°F 57% 30.14 in 10.0 miles ESE 11.5 mph - N/A   Scattered Clouds
5:53 PM 73.0°F 59.0°F 61% 30.15 in 10.0 miles ESE 6.9 mph - N/A   Scattered Clouds
6:53 PM 73.0°F 60.1°F 64% 30.17 in 10.0 miles ESE 5.8 mph - N/A   Partly Cloudy
7:53 PM 72.0°F 60.1°F 66% 30.18 in 10.0 miles East 6.9 mph - N/A   Partly Cloudy
8:53 PM 70.0°F 60.1°F 71% 30.19 in 10.0 miles ESE 6.9 mph - N/A   Partly Cloudy
9:53 PM 72.0°F 61.0°F 68% 30.20 in 10.0 miles ESE 5.8 mph - N/A   Scattered Clouds
10:53 PM 71.1°F 63.0°F 75% 30.20 in 10.0 miles East 5.8 mph - N/A   Scattered Clouds
11:53 PM 71.1°F 63.0°F 75% 30.19 in 10.0 miles ESE 6.9 mph - N/A   Scattered Clouds